{"data":{"norad_id":64801,"intl_designator":"2025-150M","name":"STARLINK-34604","alt_names":[],"object_type":"PAYLOAD","status":"ACTIVE","operator":null,"country":"US","launch_date":"2025-07-16","launch_site_code":"AFWTR","launch_vehicle":null,"mission":null,"orbit_class":"UNKNOWN","rcs_meters":null,"size_class":null,"mass_kg":null,"dimensions":null,"purposes":["comms"],"wikipedia_slug":null,"has_3d_model":false,"image_url":null,"decayed_at":null,"tle_current":{"epoch":"2026-05-25T04:15:19.337760Z","epoch_age_seconds":59420,"freshness":"FRESH","line1":"1 64801U 25150M   26145.17730715  .00002463  00000+0  21410-3 0  9996","line2":"2 64801  70.0001 301.6116 0002721 269.0902  90.9945 14.98333962 47978","mean_motion":14.98333962,"eccentricity":0.0002721,"inclination_deg":70.0001,"raan_deg":301.6116,"arg_perigee_deg":269.0902,"mean_anomaly_deg":90.9945,"bstar":0.0002141,"rev_number":4797,"period_min":96.10674499281,"perigee_km":570.15249466142,"apogee_km":573.93478296506,"semimajor_km":6950.1806388132,"source":"CELESTRAK","updated_at":"2026-05-25T13:38:20.565704Z"}}}